Notices

What's New in latest Release from April 7th, 2021:

- Updated Glossary, including Speed of Maximum Gust, and Total Hourly Precipitation

- Updated national and regional climate services offices contacts and prices information

- Addition of station inventory lists for 1981-2010, 1971-2000, and 1961-1990 Normals.

If you haven't already, please take our survey and provide feedback about our website: https://eccc.sondage-survey.ca/f/LanguageSelection.aspx?s=442ca660-fcf1-47c0-95a9-59707d6fd709

Hourly Data Report for July 22, 2020

TORONTO CITY
ONTARIO
Current Station Operator: ECCC - MSC

43°40'00.000" N
79°24'00.000" W
112.50 m
6158355
71508
XTO

Download Data

Hourly Data (July 2020)
Hourly Data Report for July 22, 2020
TIME
LST
Temp Definition
°C
Dew Point Definition
°C
Rel Hum Definition
%
Precip. Amount Definition
mm

Wind Dir Definition
10's deg

Wind Spd Definition
km/h
Visibility Definition
km
Stn Press Definition
kPa
Hmdx Definition


Wind Chill Definition


Weather Definition


00:00 21.8 16.3 71 0.0       100.30 27   LegendNANA
01:00 21.4 16.6 74 0.0       100.24 26   LegendNANA
02:00 21.4 16.7 75 0.0       100.20 26   LegendNANA
03:00 21.1 16.7 76 0.0       100.20 26   LegendNANA
04:00 21.3 16.5 74 0.0       100.20 26   LegendNANA
05:00 21.1 16.3 74 0.0       100.17 26   LegendNANA
06:00 21.3 16.6 75 0.0       100.18 26   LegendNANA
07:00 21.3 17.4 79 0.0       100.15 27   LegendNANA
08:00 21.4 18.1 81 0.0       100.19 27   LegendNANA
09:00 21.6 18.2 81 0.0       100.15 28   LegendNANA
10:00 23.5 16.0 63 0.0       100.17 28   LegendNANA
11:00 25.1 16.8 60 0.0       100.14 30   LegendNANA
12:00 24.2 16.4 62 0.0       100.11 29   LegendNANA
13:00 25.5 16.3 57 0.0       100.06 30   LegendNANA
14:00 26.1 18.7 64 0.0       99.97 33   LegendNANA
15:00 22.8 19.3 80 2.8       99.96 30   LegendNANA
16:00 23.0 20.9 88 18.0       99.92 31   LegendNANA
17:00 23.2 21.0 87 0.7       99.90 32   LegendNANA
18:00 23.2 20.6 85 0.2       99.86 31   LegendNANA
19:00 22.9 20.1 84 0.0       99.88 31   LegendNANA
20:00 22.3 19.8 86 0.0       99.96 30   LegendNANA
21:00 22.4 20.2 88 0.0       100.00 30   LegendNANA
22:00 22.8 20.4 86 0.0       100.03 31   LegendNANA
23:00 22.3 19.8 86 0.0       100.07 30   LegendNANA

Notes on Data Quality.

Legend

  • E = Estimated
  • M = Missing
  • NA = Not Available*
  • [empty] = Indicates an unobserved value
Date modified: